Temperature
21 21 20 20 19 19 19 18 18 18 17 17 17 17 17 17 17 16 16 16 17 17 17 16 16 16 16 16 16 16 16 16 16 16 16 16 16 16 15 15 15 15 15
21 21 20 20 19 19 19 18 18 18 17 17 17 17 17 17 17 16 16 16 16 16 17 16 16 16 16 16 16 16 16 16 16 16 16 16 16 16 15 15 15 15 15
22 21 20 20 20 19 19 19 18 18 18 17 17 17 17 17 17 16 16 16 16 16 16 16 16 16 16 16 16 16 16 16 16 16 16 16 16 15 15 15 15 15 15
22 21 21 20 20 19 19 19 19 18 18 17 17 17 17 17 17 16 16 16 16 16 16 16 16 16 16 16 16 16 15 15 15 15 16 16 16 15 15 15 15 15 15
22 21 21 21 20 20 19 19 19 18 18 18 17 17 17 17 17 17 16 16 16 16 16 16 16 16 16 16 16 16 16 15 15 15 15 15 15 16 15 15 15 15 15
22 21 21 21 20 20 19 19 19 18 18 18 17 17 17 17 17 17 16 16 16 16 16 16 16 16 16 16 16 16 15 15 15 15 15 15 15 15 15 15 15 15 15
22 21 21 20 20 20 19 19 19 18 18 18 17 17 17 17 17 17 17 17 16 16 16 16 16 16 16 16 16 15 15 15 15 15 15 15 15 15 15 15 15 15 14
22 21 21 20 20 20 19 19 19 18 18 18 17 17 17 17 17 17 17 17 17 16 16 16 16 16 16 16 15 15 15 15 15 15 15 15 15 14 14 14 14 14 14
22 21 21 20 20 20 19 19 19 18 18 18 18 17 17 17 17 17 17 17 17 16 16 16 16 16 16 16 15 15 15 15 15 15 15 14 14 14 14 14 14 14 14
22 21 20 20 20 19 19 19 19 18 18 18 18 17 17 17 17 17 17 17 17 16 16 16 16 16 16 15 15 15 15 15 15 14 14 14 14 14 14 14 14 13 13
21 21 20 20 20 19 19 19 19 18 18 18 18 17 17 17 17 17 17 17 17 16 16 16 16 16 16 15 15 15 15 14 14 14 14 14 14 14 14 14 13 13 13
21 21 20 20 19 19 19 19 19 18 18 18 18 18 17 17 17 17 17 16 16 16 16 16 16 16 15 15 15 15 15 14 14 14 14 14 14 14 13 13 13 13 13
21 21 20 19 19 19 19 19 18 18 18 18 18 17 17 17 17 17 16 16 16 16 16 16 16 15 15 15 15 15 14 14 14 14 14 13 13 13 13 13 13 13 12
21 20 20 19 19 19 19 19 18 18 18 18 18 17 17 17 17 17 16 16 16 16 16 16 16 15 15 15 15 14 14 14 14 14 13 13 13 13 13 13 13 12 12
21 20 20 19 19 19 19 19 18 18 18 18 17 17 17 17 17 16 16 16 16 16 16 15 15 15 15 15 14 14 14 14 14 13 13 13 13 13 13 13 12 12 12
20 20 19 19 19 19 19 18 18 18 18 17 17 17 17 17 16 16 16 16 15 15 15 15 15 15 15 14 14 14 13 13 13 13 13 13 13 13 12 12 12 12 12
20 20 19 19 19 19 19 18 18 18 18 17 17 17 17 16 16 16 16 15 15 15 15 15 15 15 14 14 14 14 13 13 13 13 13 13 12 12 12 12 12 12 11
20 19 19 19 19 19 18 18 18 18 17 17 17 16 16 16 16 16 15 15 15 15 15 14 14 14 14 14 14 13 13 13 13 12 12 12 12 12 12 12 12 11 11
19 19 19 19 19 19 18 18 18 17 17 17 16 16 16 16 15 15 15 15 15 14 14 14 14 14 14 14 13 13 13 13 13 12 12 12 12 12 11 11 11 11 11
19 19 19 19 19 18 18 18 17 17 17 16 16 16 16 15 15 15 15 14 14 14 14 14 14 14 13 13 13 13 13 12 12 12 12 12 11 11 11 11 11 11 10
18 18 18 18 18 18 18 17 17 17 17 16 16 16 15 15 15 15 14 14 14 14 13 13 13 13 13 13 13 12 12 12 12 12 11 11 11 11 11 10 10 10 10
18 18 18 18 18 18 18 17 17 17 16 16 16 15 15 15 14 14 14 14 13 13 13 13 13 13 12 12 12 12 12 12 11 11 11 11 10 10 10 10 10 9 9
17 17 17 17 17 17 17 17 17 16 16 16 15 15 15 14 14 14 14 13 13 13 12 12 12 12 12 12 12 11 11 11 11 10 10 10 10 10 9 9 9 9 9
17 17 17 17 17 16 16 16 16 16 16 15 15 15 14 14 14 14 13 13 13 12 12 12 12 11 11 11 11 11 11 10 10 10 9 9 9 9 9 9 9 8 8
16 16 16 16 16 16 16 16 15 15 15 15 14 14 14 14 13 13 13 13 12 12 12 12 11 11 11 11 11 11 10 10 10 9 9 9 9 8 8 8 8 7 7
16 15 15 15 15 15 15 15 15 15 14 14 14 14 13 13 13 13 12 12 12 12 12 11 11 11 11 11 10 10 10 10 9 9 8 8 8 8 8 7 7 7 6
Wind_Speed
9 9 8 8 7 6 7 7 7 6 5 3 2 2 2 1 2 3 4 4 4 5 4 3 3 3 3 2 3 3 2 1 1 2 1 0 2 3 3 2 3 3 5
9 10 10 9 7 6 6 7 7 7 6 4 3 3 3 2 2 2 3 4 4 4 3 3 2 3 3 3 3 3 2 1 1 1 1 1 2 2 2 2 2 3 4
11 11 10 9 8 7 6 7 7 7 7 6 2 2 3 1 2 2 1 1 3 4 3 2 2 2 3 2 1 2 2 1 2 2 2 1 0 1 1 1 3 3 3
9 10 10 10 9 8 7 7 6 7 7 7 4 4 3 2 3 3 2 2 3 3 2 2 2 2 2 2 1 1 1 1 1 2 2 2 2 1 1 2 1 3 3
8 9 9 9 9 8 6 6 6 6 6 6 5 4 3 2 2 3 3 3 2 3 2 1 2 2 2 2 2 2 2 1 1 1 1 2 2 1 1 1 1 1 1
8 9 8 7 7 8 6 5 6 6 6 6 6 5 4 3 3 3 3 3 2 2 2 2 1 1 2 2 2 1 1 1 1 2 2 1 1 2 1 1 1 0 0
8 9 9 8 7 8 8 6 7 6 6 6 7 6 5 4 4 3 3 3 2 2 3 2 1 1 2 2 2 1 1 1 1 1 1 2 2 1 2 2 1 1 0
8 9 9 8 8 8 8 7 7 7 6 6 6 6 5 4 3 4 3 3 3 3 4 3 2 2 2 2 2 1 0 1 1 0 1 1 2 2 2 1 2 2 2
8 8 9 8 8 8 8 7 7 7 7 7 6 5 5 4 4 3 3 3 2 3 4 4 3 2 2 2 2 1 1 1 1 1 1 1 1 1 2 2 1 1 1
8 8 8 8 8 7 7 7 7 7 7 7 6 5 5 4 4 3 3 3 3 2 4 3 3 3 3 2 2 1 0 2 1 1 2 1 1 1 1 1 1 1 1
8 8 7 6 7 7 6 6 6 6 6 6 5 5 5 5 4 3 3 3 3 4 4 3 3 3 3 3 3 2 1 1 1 1 1 1 1 1 1 1 1 1 1
7 8 7 7 6 7 6 6 6 6 6 5 5 5 5 4 4 4 3 4 3 3 3 4 3 2 3 3 3 2 2 1 1 1 1 1 1 1 1 1 1 1 0
7 7 7 6 6 7 6 6 5 5 5 5 5 4 4 4 4 4 3 4 4 4 3 4 3 2 2 1 2 2 2 2 1 1 1 1 1 0 0 0 1 1 1
7 7 7 6 6 7 6 6 5 5 5 5 5 4 4 4 4 3 3 3 3 3 3 3 3 3 2 1 1 1 2 2 1 2 1 1 2 1 0 0 0 1 0
6 6 7 6 6 6 6 6 6 6 6 6 5 4 3 4 4 3 3 2 2 2 2 3 3 2 2 1 1 0 1 1 2 2 1 2 4 4 2 1 1 1 1
5 6 6 6 7 7 6 6 6 6 6 6 5 4 3 4 4 4 3 3 2 2 2 3 3 2 2 3 3 2 0 1 2 2 1 2 3 3 4 4 3 2 1
5 5 6 6 6 6 6 6 7 7 7 7 5 4 4 4 4 4 4 3 3 2 2 2 3 2 2 3 3 2 1 1 0 1 1 1 1 2 2 1 1 2 2
4 4 4 5 5 5 6 6 6 6 6 6 6 5 5 4 4 4 3 3 2 3 3 2 3 3 2 3 2 1 0 1 1 1 1 1 1 1 1 1 0 1 3
3 3 3 4 4 5 6 7 6 6 6 6 6 6 6 5 4 4 4 3 2 2 2 2 2 2 2 2 2 2 1 1 2 1 1 1 0 1 1 1 1 2 2
3 3 2 2 3 4 5 6 7 6 5 5 5 5 5 5 5 4 3 3 2 2 2 2 2 2 2 2 3 3 1 1 1 1 1 1 0 1 0 1 2 2 3
4 3 3 2 2 3 5 6 5 5 5 5 5 5 5 5 5 4 3 3 2 2 2 2 1 2 2 2 3 3 2 1 1 1 1 1 1 1 1 1 2 3 2
4 4 3 2 2 3 5 5 4 4 5 5 5 5 5 5 5 5 3 3 3 2 2 2 1 1 1 2 3 4 2 1 0 1 0 1 1 1 1 2 2 3 2
3 3 3 3 3 3 4 4 4 5 5 5 5 5 5 4 4 5 4 3 3 2 2 2 2 1 1 1 2 3 2 2 1 1 1 1 1 1 1 2 3 2 1
3 3 3 3 2 2 3 3 3 4 5 5 5 4 4 4 4 3 3 3 2 2 2 2 2 2 1 1 1 1 1 2 1 1 1 1 1 1 2 2 2 1 1
2 2 2 2 2 3 3 3 3 3 4 5 4 4 4 4 3 3 2 2 1 2 3 2 2 2 2 2 2 2 2 2 1 0 0 0 0 0 1 1 1 1 1
2 2 2 2 2 3 3 3 3 3 3 4 4 3 3 4 4 3 2 3 2 2 2 3 3 1 2 3 3 2 2 2 2 1 1 1 1 1 1 1 2 1 1
Wind_Direction
177 163 157 154 153 157 150 143 149 148 128 116 108 107 103 85 76 68 56 42 48 56 63 62 70 79 84 71 62 63 49 20 52 62 24 48 100 97 97 73 66 75 80
170 162 165 165 170 168 161 159 159 148 138 137 143 143 136 122 99 69 56 45 59 55 74 82 82 91 89 67 48 60 36 350 30 75 62 32 25 355 104 108 93 72 69
177 170 171 169 171 170 172 166 156 146 142 143 133 112 91 88 105 112 95 50 75 76 65 82 101 112 104 104 78 69 58 8 340 41 67 79 68 324 12 90 99 93 73
175 170 172 172 174 174 172 166 162 155 148 141 150 150 162 180 168 154 156 148 116 96 72 55 73 94 107 114 100 88 61 62 345 355 29 57 104 115 344 337 67 100 89
177 169 169 170 174 169 167 167 161 150 146 149 152 170 191 185 146 139 148 152 131 125 126 98 80 97 107 111 101 77 57 71 23 353 354 6 13 312 122 309 333 26 87
169 167 162 162 166 155 157 158 155 153 153 157 165 189 194 172 150 154 155 155 143 159 160 137 115 128 133 119 99 96 97 74 34 6 6 33 24 354 26 18 335 14 141
171 167 162 164 158 152 157 160 157 159 164 173 182 183 184 181 175 170 166 165 157 168 173 135 170 156 122 110 107 87 89 108 91 28 357 24 10 25 37 40 1 355 290
168 164 161 161 158 158 161 167 166 168 172 181 187 185 176 177 182 179 168 178 175 175 156 149 158 132 124 125 117 109 154 133 134 147 96 37 353 20 41 74 54 356 340
162 159 158 160 160 161 166 172 168 169 176 187 187 185 174 176 176 178 179 172 170 158 139 148 152 136 127 122 127 135 185 113 61 60 78 79 31 20 21 41 78 98 5
154 153 157 160 160 163 167 172 168 173 180 185 186 181 172 176 171 175 181 160 160 140 133 146 142 147 141 137 133 146 167 114 81 79 62 40 10 19 43 29 12 49 125
152 151 155 155 155 157 162 171 170 173 178 184 186 171 166 172 167 169 170 158 157 152 148 153 157 162 156 147 139 152 157 145 158 141 131 119 55 33 24 20 10 1 52
147 150 153 156 158 160 168 174 176 173 174 176 167 162 162 162 163 171 174 166 165 160 161 160 159 148 146 145 147 167 155 160 172 178 142 140 96 41 16 21 342 333 17
143 148 153 161 162 162 168 173 169 162 161 159 157 159 158 161 165 170 174 174 174 167 166 153 144 134 114 117 135 155 158 169 177 137 120 114 105 117 61 21 336 325 359
148 148 154 161 164 164 167 166 159 151 148 146 153 156 162 162 162 165 159 167 170 160 155 136 129 127 120 105 105 142 157 151 130 107 104 103 104 83 16 133 339 344 17
154 154 157 160 160 160 161 161 157 150 150 147 150 154 159 149 140 140 141 141 130 129 128 117 115 114 110 91 93 179 156 149 138 134 141 120 105 93 83 69 34 23 14
159 161 163 163 163 164 169 165 160 153 150 146 147 147 145 131 130 133 131 126 113 105 101 114 116 106 88 68 65 33 292 184 163 159 170 136 108 111 94 72 56 50 30
156 163 169 171 171 172 172 162 160 154 153 149 147 144 140 131 132 134 132 135 143 143 135 129 125 121 102 90 66 28 340 334 337 167 170 156 141 125 132 120 28 350 336
155 166 174 172 175 175 165 154 149 147 146 148 151 149 144 137 137 137 142 149 146 145 150 152 144 130 116 110 94 64 317 321 323 304 214 196 163 109 133 156 170 275 282
142 156 174 175 177 170 159 150 147 148 149 150 154 151 150 148 148 150 156 152 146 141 145 148 152 153 155 146 146 141 187 237 278 294 3 46 127 58 97 132 199 285 295
126 143 169 167 159 159 154 150 154 155 154 151 154 154 153 152 156 160 159 146 147 159 159 166 170 174 172 163 165 166 183 218 264 290 337 352 7 29 100 213 219 251 263
116 118 134 151 152 151 149 156 157 158 154 149 153 153 154 157 155 154 150 146 157 165 170 169 170 176 172 169 162 166 189 215 240 256 282 317 324 357 259 250 234 257 272
109 121 127 131 128 138 147 150 151 149 142 144 148 151 153 159 153 148 156 157 155 166 183 179 179 193 172 143 163 165 192 253 220 262 256 326 331 327 304 277 295 315 329
123 115 116 115 120 132 141 151 150 139 137 137 145 149 149 145 146 151 155 158 164 175 191 186 193 193 147 121 146 172 213 252 235 217 220 288 309 315 292 291 306 311 311
123 126 129 125 125 129 132 133 130 139 146 149 151 149 142 136 137 138 146 154 172 181 188 190 195 194 180 163 163 180 198 213 257 277 278 291 268 255 243 276 295 281 258
121 135 142 141 140 124 117 112 128 146 149 149 145 143 138 139 136 118 107 141 157 185 189 193 190 195 205 216 190 173 194 203 209 215 146 254 327 261 276 277 258 250 267
150 149 140 145 151 140 132 125 134 145 153 151 146 144 139 137 134 127 95 58 79 106 156 174 181 195 179 171 173 194 202 194 187 164 202 223 228 232 240 269 287 272 255
Height
1530 1533 1536 1538 1541 1543 1544 1546 1547 1549 1550 1551 1552 1553 1554 1554 1555 1555 1556 1556 1556 1556 1557 1557 1557 1557 1558 1558 1559 1559 1560 1560 1560 1561 1560 1561 1561 1561 1561 1561 1560 1560 1559
1528 1531 1534 1537 1540 1542 1544 1545 1547 1548 1549 1551 1552 1553 1554 1555 1555 1555 1556 1556 1556 1557 1557 1557 1558 1558 1558 1559 1559 1560 1560 1561 1561 1561 1561 1561 1563 1562 1562 1561 1561 1561 1560
1525 1529 1532 1535 1538 1540 1542 1544 1546 1547 1549 1550 1552 1553 1554 1554 1555 1556 1556 1556 1556 1557 1557 1558 1558 1558 1559 1559 1560 1560 1561 1561 1561 1562 1562 1562 1562 1562 1563 1562 1561 1561 1560
1523 1526 1530 1533 1536 1539 1541 1543 1545 1546 1548 1549 1551 1552 1553 1554 1555 1555 1556 1556 1556 1557 1557 1558 1558 1559 1559 1559 1560 1560 1561 1561 1561 1562 1562 1562 1562 1562 1563 1563 1562 1561 1561
1521 1524 1528 1531 1534 1537 1540 1542 1544 1545 1547 1548 1550 1551 1552 1553 1554 1555 1556 1556 1556 1557 1557 1558 1558 1559 1559 1559 1560 1560 1560 1561 1561 1561 1562 1562 1562 1562 1562 1562 1562 1561 1560
1519 1523 1526 1529 1533 1535 1538 1540 1542 1544 1545 1547 1549 1550 1551 1553 1554 1555 1555 1556 1556 1557 1557 1557 1558 1558 1559 1559 1559 1560 1560 1560 1561 1561 1561 1562 1562 1562 1562 1561 1561 1561 1560
1517 1521 1524 1528 1531 1533 1536 1538 1540 1542 1544 1546 1547 1549 1550 1551 1553 1554 1554 1555 1555 1556 1557 1557 1557 1558 1558 1558 1559 1559 1559 1560 1560 1560 1561 1561 1561 1561 1561 1561 1560 1560 1560
1516 1519 1522 1526 1529 1531 1534 1536 1538 1540 1542 1544 1546 1547 1549 1550 1551 1553 1553 1554 1555 1555 1556 1556 1557 1557 1558 1558 1558 1558 1559 1559 1559 1560 1560 1560 1560 1560 1560 1560 1560 1559 1559
1514 1517 1521 1524 1527 1529 1532 1534 1536 1538 1540 1542 1544 1546 1547 1549 1550 1551 1552 1553 1554 1554 1555 1555 1556 1557 1557 1557 1558 1558 1558 1559 1559 1559 1559 1559 1559 1559 1559 1559 1559 1560 1559
1513 1516 1519 1522 1525 1527 1530 1533 1535 1537 1539 1541 1542 1544 1546 1547 1549 1550 1551 1552 1552 1553 1554 1554 1555 1555 1556 1556 1557 1557 1557 1557 1558 1558 1558 1558 1558 1558 1558 1558 1558 1558 1558
1512 1515 1518 1520 1523 1526 1528 1531 1533 1535 1537 1539 1541 1542 1544 1546 1547 1548 1549 1550 1551 1552 1553 1553 1553 1554 1554 1555 1555 1556 1556 1556 1556 1556 1557 1557 1557 1556 1556 1556 1556 1556 1556
1511 1514 1516 1519 1521 1524 1526 1529 1531 1533 1535 1537 1539 1541 1542 1544 1545 1546 1547 1548 1549 1550 1551 1551 1552 1553 1553 1553 1554 1554 1554 1555 1555 1555 1555 1555 1555 1555 1555 1555 1554 1555 1555
1510 1513 1515 1517 1520 1522 1525 1527 1529 1531 1533 1535 1537 1538 1540 1542 1543 1544 1545 1547 1548 1549 1549 1550 1550 1551 1551 1552 1552 1553 1553 1553 1553 1553 1553 1553 1553 1553 1553 1553 1553 1553 1553
1509 1511 1514 1516 1518 1521 1523 1525 1528 1530 1531 1533 1535 1536 1538 1540 1541 1543 1544 1545 1546 1547 1548 1548 1549 1549 1550 1550 1551 1551 1551 1551 1552 1552 1552 1551 1551 1551 1551 1551 1551 1551 1551
1508 1510 1512 1514 1517 1519 1521 1524 1526 1528 1530 1531 1533 1534 1536 1538 1539 1540 1542 1543 1544 1545 1546 1546 1547 1548 1548 1548 1549 1549 1550 1550 1550 1550 1550 1550 1550 1550 1549 1549 1549 1549 1549
1506 1509 1511 1513 1515 1517 1520 1522 1524 1526 1528 1530 1531 1533 1535 1536 1537 1538 1540 1541 1542 1543 1544 1544 1545 1546 1546 1547 1547 1547 1548 1548 1548 1548 1548 1548 1548 1548 1548 1547 1547 1547 1547
1505 1507 1509 1511 1513 1515 1518 1520 1522 1524 1526 1528 1530 1531 1533 1534 1535 1537 1538 1539 1540 1540 1541 1542 1543 1543 1544 1544 1545 1545 1546 1546 1546 1546 1546 1545 1545 1545 1545 1545 1545 1544 1544
1504 1506 1508 1510 1512 1514 1516 1518 1521 1522 1524 1526 1528 1529 1531 1532 1533 1535 1536 1537 1538 1538 1539 1540 1540 1541 1541 1542 1542 1543 1543 1543 1543 1543 1543 1543 1543 1542 1542 1542 1541 1541 1541
1502 1504 1507 1508 1510 1512 1514 1516 1518 1521 1522 1524 1526 1527 1528 1530 1531 1532 1534 1535 1536 1536 1537 1538 1538 1538 1539 1539 1540 1540 1540 1540 1540 1540 1540 1540 1540 1540 1540 1539 1538 1538 1537
1501 1503 1505 1507 1508 1510 1512 1514 1516 1518 1520 1522 1523 1525 1526 1528 1529 1530 1531 1532 1533 1534 1535 1535 1536 1536 1536 1537 1537 1537 1537 1537 1537 1537 1537 1537 1537 1537 1536 1536 1535 1534 1534
1500 1501 1503 1504 1506 1508 1510 1512 1514 1516 1518 1520 1521 1523 1524 1525 1527 1528 1529 1530 1531 1532 1532 1533 1533 1534 1534 1534 1534 1534 1534 1534 1533 1533 1533 1533 1534 1533 1533 1533 1532 1531 1531
1499 1500 1502 1503 1505 1507 1509 1510 1512 1514 1516 1518 1519 1520 1522 1523 1525 1526 1527 1528 1529 1529 1530 1530 1530 1531 1531 1531 1531 1531 1531 1531 1531 1530 1530 1530 1530 1530 1529 1529 1528 1528 1527
1498 1499 1501 1502 1504 1506 1507 1509 1511 1513 1514 1516 1517 1518 1520 1521 1522 1523 1524 1525 1526 1526 1527 1527 1527 1527 1528 1528 1528 1528 1528 1528 1527 1527 1527 1527 1526 1526 1525 1525 1525 1524 1523
1497 1498 1499 1501 1502 1504 1505 1507 1509 1511 1512 1514 1515 1516 1517 1519 1520 1521 1522 1523 1523 1523 1524 1524 1524 1524 1525 1525 1525 1525 1525 1524 1524 1524 1523 1523 1522 1522 1522 1521 1521 1520 1520
1496 1497 1498 1499 1500 1502 1503 1505 1507 1509 1510 1511 1513 1514 1515 1516 1517 1518 1519 1520 1521 1521 1521 1521 1522 1522 1521 1522 1522 1522 1521 1521 1521 1520 1520 1519 1519 1518 1518 1517 1517 1516 1515
1494 1495 1496 1497 1499 1500 1501 1503 1505 1506 1508 1509 1510 1512 1513 1514 1515 1515 1516 1517 1518 1519 1519 1519 1519 1519 1519 1519 1519 1519 1518 1518 1517 1517 1516 1515 1515 1515 1514 1514 1513 1513 1512